Home > Weather > Borås > Past weeks

Flag for Sweden Past Weather in Borås, Sweden — Yesterday and Last 2 Weeks

Now
64 °F

Sunny.


Feels Like: 64 °F
Forecast: 56 / 74 °F
Wind: 8 mph from Southwest

Location: Gothenburg / Landvetter

Current Time: Aug 24, 2016 at 8:14:44 PM

Latest Report: Aug 24, 2016 at 7:20 PM


Visibility: 10 mi

Pressure: 30.24 "Hg

Humidity: 78%

Dew Point: 57 °F

Location of BoråsLocation

Past Weather in Borås — Graph

°F

Borås Temperature Yesterday

Maximum temperature yesterday: 66 °F (at 11:20 AM)
Minimum temperature yesterday: 54 °F (at 10:50 PM)
Average temperature yesterday: 61 °F

High & Low Weather Summary for the Past Weeks

 TemperatureHumidityPressure
High70 °F (Aug 15, 4:50 PM)100% (Aug 10, 7:20 AM)30.30 "Hg (Aug 10, 7:20 AM)
Low43 °F (Aug 11, 3:50 AM)35% (Aug 15, 3:50 PM)29.65 "Hg (Aug 10, 4:20 AM)
Average57 °F83%29.97 "Hg
* Reported Aug 9 6:20 PM — Aug 24 6:50 PM, Borås, Weather by CustomWeather, © 2016

Note: Actual official high and low records may vary slightly from our data, if they occured in-between our weather recording intervals... More about our weather records

Advertising

Borås Weather History for the Previous 24 Hours

Scroll right to see more
 ConditionsComfort  
Time TempWeatherWind HumidityBarometerVisibility
6:50 PM
Wed, Aug 24
64 °FPassing clouds.9 mph83%30.24 "HgN/A
6:20 PM66 °FPassing clouds.9 mph78%30.24 "HgN/A
5:50 PM66 °FPassing clouds.10 mph78%30.24 "HgN/A
5:20 PM68 °FPassing clouds.9 mph73%30.27 "HgN/A
4:50 PM68 °FScattered clouds.9 mph73%30.27 "HgN/A
4:20 PM68 °FScattered clouds.8 mph73%30.27 "HgN/A
3:50 PM68 °FScattered clouds.10 mph73%30.27 "HgN/A
3:20 PM68 °FScattered clouds.12 mph69%30.27 "HgN/A
2:50 PM68 °FScattered clouds.13 mph73%30.27 "HgN/A
2:20 PM66 °FScattered clouds.10 mph73%30.27 "HgN/A
1:50 PM66 °FScattered clouds.10 mph73%30.27 "HgN/A
1:20 PM66 °FScattered clouds.9 mph73%30.30 "HgN/A
12:50 PM66 °FScattered clouds.10 mph73%30.30 "HgN/A
12:20 PM64 °FPartly sunny.9 mph78%30.30 "HgN/A
11:50 AM64 °FMostly cloudy.8 mph78%30.30 "HgN/A
11:20 AM63 °FBroken clouds.10 mph83%30.30 "HgN/A
10:50 AM63 °FPartly sunny.8 mph83%30.30 "HgN/A
10:20 AM61 °FPartly sunny.7 mph88%30.30 "HgN/A
9:50 AM59 °FPartly sunny.8 mph94%30.30 "HgN/A
9:20 AM59 °FPartly sunny.6 mph94%30.30 "HgN/A
8:50 AM59 °FPartly sunny.6 mph94%30.30 "HgN/A
8:20 AM57 °FLow clouds.6 mph100%30.30 "HgN/A
7:50 AM57 °FPartly sunny.3 mph94%30.30 "HgN/A
6:50 AM55 °FPassing clouds.No wind100%30.30 "HgN/A
6:20 AM55 °FLow clouds.2 mph94%30.30 "HgN/A
5:50 AM55 °FMostly cloudy.5 mph100%30.27 "HgN/A
5:20 AM55 °FOvercast.5 mph100%30.27 "HgN/A
4:50 AM55 °FMostly cloudy.6 mph94%30.30 "HgN/A
4:20 AM55 °FOvercast.6 mph100%30.30 "HgN/A
3:50 AM55 °FLow clouds.5 mph94%30.30 "HgN/A
3:20 AM55 °FLow clouds.3 mph94%30.30 "HgN/A
2:50 AM55 °FPassing clouds.2 mph94%30.30 "HgN/A
2:20 AM55 °FPassing clouds.2 mph94%30.30 "HgN/A
1:50 AM57 °FOvercast.3 mph94%30.30 "HgN/A
1:20 AM55 °FOvercast.3 mph100%30.30 "HgN/A
12:50 AM54 °FMostly cloudy.3 mph100%30.30 "Hg4 mi
12:20 AM52 °FClear.3 mph100%30.30 "Hg10 mi
11:50 PM
Tue, Aug 23
54 °FClear.2 mph94%30.30 "Hg10 mi
11:20 PM55 °FClear.No wind94%30.27 "Hg10 mi
10:50 PM54 °FClear.1 mph94%30.27 "Hg10 mi
10:20 PM55 °FClear.2 mph94%30.27 "Hg10 mi
9:50 PM55 °FClear.3 mph94%30.27 "Hg10 mi
9:20 PM57 °FSunny.3 mph88%30.27 "Hg10 mi
8:50 PM57 °FSunny.3 mph88%30.27 "Hg10 mi
8:20 PM59 °FSunny.6 mph88%30.27 "Hg10 mi
Weather by CustomWeather, © 2016

See weather overviewHow to use our weather pages